North Adams, MA

6:47 AM EST on December 05, 2016 (GMT -0500)
Harriman And West

Weather History for KAQW - November, 2013

Change the Weather History Date:

Tuesday, November 12, 2013

  Actual Average Record
Temperature  
Mean Temperature 34 °F -  
Max Temperature 43 °F 44 °F 68 °F (2012)
Min Temperature 25 °F 28 °F 19 °F (1997)
Degree Days  
Heating Degree Days 31    
Moisture  
Dew Point 19 °F    
Average Humidity 61    
Maximum Humidity 87    
Minimum Humidity 43    
Precipitation  
Precipitation 0.01 in - - ()
Sea Level Pressure  
Sea Level Pressure 30.09 in    
Wind  
Wind Speed 9 mph (WNW)    
Max Wind Speed 13 mph    
Max Gust Speed 29 mph    
Visibility 9 miles    
Events Rain , Snow    
Averages and records for this station are not official NWS values.
T = Trace of Precipitation, MM = Missing Value Source: NWS Daily Summary

Daily Weather History Graph

Daily Weather History Graph

Search for Another Location

Airport or City:

Trip Planner

Search our weather history database for the weather conditions in past years. The results will help you decide how hot, cold, wet, or windy it might be!

Date:

Astronomy

Nov. 12, 2013 Rise Set
Actual Time 6:40 AM EST 4:32 PM EST
Civil Twilight 6:10 AM EST 5:02 PM EST
Nautical Twilight 5:36 AM EST 5:36 PM EST
Astronomical Twilight 5:03 AM EST 6:09 PM EST
Moon 1:51 PM EST (11/12) 1:20 AM EST (11/12)
Length of Visible Light 10h 52m
Length of Day
9h 51m
Waxing Gibbous, 76% of the Moon is Illuminated
Nov 12
Waxing Gibbous
Nov 17
Full
Nov 25
Last Quarter
Dec 2
New
Dec 9
First Quarter

Hourly Weather History & Observations

Time (EST) Temp. Windchill Dew Point Humidity Pressure Visibility Wind Dir Wind Speed Gust Speed Precip Events Conditions
12:52 AM 43.0 °F 36.8 °F 30.0 °F 60% 29.91 in 10.0 mi West 11.5 mph - N/A   Overcast
1:29 AM 39.2 °F 31.6 °F 28.4 °F 65% 29.92 in 10.0 mi West 12.7 mph 28.8 mph 0.00 in Rain Light Rain
1:52 AM 37.9 °F 30.5 °F 26.1 °F 62% 29.96 in 10.0 mi West 11.5 mph 21.9 mph 0.00 in   Overcast
2:34 AM 37.4 °F 31.4 °F 24.8 °F 60% 29.94 in 10.0 mi West 8.1 mph - N/A   Overcast
2:52 AM 37.0 °F 29.8 °F 26.1 °F 65% 29.96 in 10.0 mi West 10.4 mph 20.7 mph N/A   Overcast
3:31 AM 33.8 °F 30.8 °F 28.4 °F 81% 29.96 in 6.0 mi SSW 3.5 mph - 0.00 in Snow Light Snow
3:52 AM 34.0 °F 26.6 °F 28.0 °F 79% 29.99 in 7.0 mi West 9.2 mph - 0.00 in Snow Light Snow
4:22 AM 33.8 °F 28.6 °F 30.2 °F 87% 29.98 in 2.5 mi West 5.8 mph - 0.00 in Snow Light Snow
4:26 AM 33.8 °F 27.7 °F 30.2 °F 87% 29.98 in 1.8 mi West 6.9 mph - 0.00 in Snow Light Snow
4:33 AM 33.8 °F 27.7 °F 28.4 °F 81% 29.99 in 1.8 mi WNW 6.9 mph - 0.01 in Snow Light Snow
4:38 AM 33.8 °F 28.6 °F 26.6 °F 75% 30.00 in 3.0 mi WNW 5.8 mph - 0.01 in Snow Light Snow
4:52 AM 32.0 °F 27.5 °F 27.0 °F 82% 30.02 in 4.0 mi Variable 4.6 mph - 0.01 in Snow Light Snow
5:17 AM 32.0 °F 26.4 °F 23.0 °F 69% 30.01 in 9.0 mi Variable 5.8 mph - 0.00 in   Overcast
5:52 AM 30.9 °F 22.2 °F 19.9 °F 64% 30.04 in 10.0 mi West 10.4 mph - 0.00 in   Overcast
6:52 AM 30.9 °F 27.5 °F 19.9 °F 64% 30.06 in 10.0 mi Variable 3.5 mph - N/A   Overcast
7:27 AM 30.2 °F 22.6 °F 17.6 °F 60% 30.05 in 10.0 mi NW 8.1 mph - N/A   Overcast
7:52 AM 30.0 °F 23.2 °F 17.1 °F 59% 30.09 in 10.0 mi Variable 6.9 mph - N/A   Overcast
8:00 AM 30.2 °F 25.4 °F 17.6 °F 60% 30.07 in 10.0 mi Variable 4.6 mph - N/A   Overcast
8:52 AM 30.0 °F 22.4 °F 16.0 °F 56% 30.11 in 10.0 mi NW 8.1 mph - N/A   Mostly Cloudy
9:52 AM 28.0 °F 20.8 °F 14.0 °F 56% 30.13 in 10.0 mi NW 6.9 mph 18.4 mph N/A   Overcast
10:52 AM 28.0 °F 19.3 °F 14.0 °F 56% 30.14 in 10.0 mi NW 9.2 mph 17.3 mph N/A   Overcast
11:23 AM 28.4 °F 20.4 °F 15.8 °F 59% 30.12 in 10.0 mi NNW 8.1 mph - N/A   Overcast
11:52 AM 28.9 °F 25.2 °F 15.1 °F 56% 30.14 in 10.0 mi Variable 3.5 mph - N/A   Overcast
12:52 PM 30.9 °F 22.2 °F 12.9 °F 47% 30.14 in 10.0 mi NNW 10.4 mph 20.7 mph N/A   Overcast
1:52 PM 30.9 °F 21.2 °F 10.9 °F 43% 30.14 in 10.0 mi West 12.7 mph 17.3 mph N/A   Overcast
2:52 PM 32.0 °F 22.5 °F 12.9 °F 45% 30.15 in 10.0 mi West 12.7 mph 19.6 mph N/A   Overcast
3:52 PM 32.0 °F 23.0 °F 12.0 °F 44% 30.17 in 10.0 mi West 11.5 mph 18.4 mph N/A   Mostly Cloudy
4:52 PM 30.0 °F 20.0 °F 12.9 °F 49% 30.21 in 10.0 mi West 12.7 mph 19.6 mph N/A   Overcast
5:52 PM 28.9 °F 20.4 °F 12.0 °F 49% 30.23 in 10.0 mi WNW 9.2 mph - N/A   Overcast
6:52 PM 27.0 °F 16.7 °F 10.0 °F 49% 30.24 in 10.0 mi West 11.5 mph - N/A   Partly Cloudy
7:52 PM 26.1 °F 15.6 °F 9.0 °F 49% 30.24 in 10.0 mi WSW 11.5 mph 16.1 mph N/A   Clear
8:52 PM 26.1 °F 16.8 °F 8.1 °F 47% 30.25 in 10.0 mi West 9.2 mph - N/A   Clear
9:52 PM 26.1 °F 15.6 °F 9.0 °F 49% 30.25 in 10.0 mi West 11.5 mph - N/A   Clear
10:52 PM 25.0 °F 19.3 °F 10.9 °F 55% 30.26 in 10.0 mi WNW 4.6 mph - N/A   Mostly Cloudy
11:52 PM 25.0 °F 16.3 °F 10.9 °F 55% 30.26 in 10.0 mi West 8.1 mph - N/A   Overcast